Weather History for LGKR - March, 2012

Change the Weather History Date:

Tuesday, March 27, 2012

  Actual Average Record
Temperature  
Mean Temperature 60 °F -  
Max Temperature 71 °F 66 °F 71 °F (2001)
Min Temperature 48 °F 48 °F 33 °F (2009)
Degree Days  
Heating Degree Days 6    
Growing Degree Days 10 (Base 50)    
Moisture  
Dew Point 51 °F    
Average Humidity 76    
Maximum Humidity 100    
Minimum Humidity 33    
Precipitation  
Precipitation 0.00 in 0.09 in - ()
Sea Level Pressure  
Sea Level Pressure 30.10 in    
Wind  
Wind Speed 1 mph ()    
Max Wind Speed 12 mph    
Max Gust Speed -    
Visibility 6.9 miles    
Events      
Averages and records for this station are not official NWS values.
T = Trace of Precipitation, MM = Missing Value Source: Averaged Metar Reports

Daily Weather History Graph

Daily Weather History Graph

Search for Another Location

Airport or City:

Trip Planner

Search our weather history database for the weather conditions in past years. The results will help you decide how hot, cold, wet, or windy it might be!

Date:

Astronomy

Mar. 27, 2012 Rise Set
Actual Time 7:32 AM EEST 7:59 PM EEST
Civil Twilight 7:05 AM EEST 8:26 PM EEST
Nautical Twilight 6:33 AM EEST 8:58 PM EEST
Astronomical Twilight 6:01 AM EEST 9:31 PM EEST
Moon 9:50 AM EEST (3/27) No Moon Set
Length of Visible Light 13h 21m
Length of Day
12h 27m
Waxing Crescent, 19% of the Moon is Illuminated
Mar 27
Waxing Crescent
Mar 30
First Quarter
Apr 6
Full
Apr 13
Last Quarter
Apr 21
New

Hourly Weather History & Observations

Time (EEST) Temp. Dew Point Humidity Pressure Visibility Wind Dir Wind Speed Gust Speed Precip Events Conditions
12:20 AM 55.4 °F 50.0 °F 82% 30.06 in - Calm Calm - N/A   Clear
12:50 AM 55.4 °F 51.8 °F 88% 30.06 in - Calm Calm - N/A   Clear
1:20 AM 53.6 °F 50.0 °F 88% 30.06 in - Calm Calm - N/A   Clear
1:50 AM 53.6 °F 50.0 °F 88% 30.06 in - Calm Calm - N/A   Clear
2:20 AM 53.6 °F 50.0 °F 88% 30.06 in - Calm Calm - N/A   Clear
2:50 AM 51.8 °F 50.0 °F 94% 30.06 in - Calm Calm - N/A   Clear
3:00 AM 53 °F 50 °F 84% 30.09 in 6 mi Calm Calm - -  
3:20 AM 51.8 °F 50.0 °F 94% 30.09 in - Calm Calm - N/A   Clear
3:50 AM 51.8 °F 48.2 °F 88% 30.09 in - Calm Calm - N/A   Clear
4:20 AM 50.0 °F 48.2 °F 94% 30.09 in - Calm Calm - N/A   Clear
4:50 AM 50.0 °F 48.2 °F 94% 30.09 in - Calm Calm - N/A   Clear
5:20 AM 50.0 °F 48.2 °F 94% 30.09 in - Calm Calm - N/A   Clear
5:50 AM 50.0 °F 48.2 °F 94% 30.09 in - Calm Calm - N/A   Clear
6:20 AM 50.0 °F 48.2 °F 94% 30.09 in - Calm Calm - N/A   Clear
6:50 AM 48.2 °F 48.2 °F 100% 30.09 in - Calm Calm - N/A   Clear
7:20 AM 48.2 °F 48.2 °F 100% 30.09 in - Calm Calm - N/A   Clear
8:20 AM 50.0 °F 48.2 °F 94% 30.09 in - Calm Calm - N/A   Clear
8:50 AM 51.8 °F 50.0 °F 94% 30.12 in - Calm Calm - N/A   Clear
9:00 AM 51 °F 50 °F 95% 30.12 in 12 mi Calm Calm - -  
9:20 AM 53.6 °F 50.0 °F 88% 30.12 in - Calm Calm - N/A   Clear
9:50 AM 57.2 °F 48.2 °F 72% 30.12 in - Calm Calm - N/A   Clear
10:20 AM 59.0 °F 48.2 °F 67% 30.12 in - Calm Calm - N/A   Clear
10:50 AM 60.8 °F 51.8 °F 72% 30.15 in - SSE 3.5 mph - N/A   Clear
11:20 AM 60.8 °F 51.8 °F 72% 30.15 in - SSE 3.5 mph - N/A   Clear
11:50 AM 64.4 °F 51.8 °F 64% 30.15 in 6.2 mi SSE 5.8 mph - N/A   Partly Cloudy
12:20 PM 64.4 °F 51.8 °F 64% 30.15 in 6.2 mi South 3.5 mph - N/A   Partly Cloudy
12:50 PM 66.2 °F 51.8 °F 60% 30.15 in 6.2 mi SSW 5.8 mph - N/A   Partly Cloudy
1:20 PM 66.2 °F 51.8 °F 60% 30.15 in 6.2 mi South 3.5 mph - N/A   Partly Cloudy
1:50 PM 69.8 °F 53.6 °F 56% 30.12 in 6.2 mi ESE 3.5 mph - N/A   Partly Cloudy
2:20 PM 69.8 °F 53.6 °F 56% 30.12 in 6.2 mi ESE 4.6 mph - N/A   Partly Cloudy
2:50 PM 69.8 °F 48.2 °F 46% 30.12 in 6.2 mi Calm Calm - N/A   Partly Cloudy
3:00 PM 71 °F 48 °F 33% 30.14 in 12 mi Calm Calm - -   Scattered Clouds
3:20 PM 69.8 °F 48.2 °F 46% 30.12 in 6.2 mi Calm Calm - N/A   Partly Cloudy
3:50 PM 69.8 °F 48.2 °F 46% 30.12 in 6.2 mi West 4.6 mph - N/A   Partly Cloudy
4:20 PM 69.8 °F 48.2 °F 46% 30.12 in 6.2 mi West 4.6 mph - N/A   Partly Cloudy
4:50 PM 71.6 °F 57.2 °F 60% 30.09 in 6.2 mi WNW 4.6 mph - N/A   Partly Cloudy
5:20 PM 71.6 °F 57.2 °F 60% 30.09 in 6.2 mi WNW 4.6 mph - N/A   Partly Cloudy
5:50 PM 68.0 °F 57.2 °F 68% 30.09 in - NNW 11.5 mph - N/A   Clear
6:20 PM 68.0 °F 57.2 °F 68% 30.09 in - NNW 11.5 mph - N/A   Clear
6:50 PM 66.2 °F 57.2 °F 73% 30.09 in - WNW 6.9 mph - N/A   Clear
7:20 PM 64.4 °F 57.2 °F 77% 30.09 in - WNW 6.9 mph - N/A   Clear
7:50 PM 64.4 °F 53.6 °F 68% 30.09 in - West 3.5 mph - N/A   Clear
8:20 PM 62.6 °F 53.6 °F 72% 30.09 in - Calm Calm - N/A   Clear
8:50 PM 60.8 °F 51.8 °F 72% 30.06 in - Calm Calm - N/A   Clear
9:00 PM 60 °F 51 °F 65% 30.09 in 6 mi Calm Calm - -  
9:20 PM 59.0 °F 51.8 °F 77% 30.06 in - Calm Calm - N/A   Clear
9:50 PM 57.2 °F 51.8 °F 82% 30.09 in - Calm Calm - N/A   Clear
10:20 PM 57.2 °F 51.8 °F 82% 30.09 in - Calm Calm - N/A   Clear
10:50 PM 57.2 °F 51.8 °F 82% 30.09 in - Calm Calm - N/A   Clear
11:20 PM 57.2 °F 51.8 °F 82% 30.09 in - Calm Calm - N/A   Clear
11:50 PM 55.4 °F 50.0 °F 82% 30.06 in - Calm Calm - N/A   Clear